Mount Shasta, CA

7:42 PM PDT on June 28, 2017 (GMT -0700)
Mount Shasta

Weather History for KMHS - June, 2012

Change the Weather History Date:

Saturday, June 30, 2012

  Actual Average Record
Temperature  
Mean Temperature 66 °F 65 °F  
Max Temperature 78 °F 82 °F 99 °F (1915)
Min Temperature 54 °F 49 °F 37 °F (1968)
Degree Days  
Heating Degree Days 0 2  
Month to date heating degree days 179 141  
Since 1 June heating degree days 179 142  
Since 1 July heating degree days 5518 5694  
Cooling Degree Days 1 2  
Month to date cooling degree days 32 37  
Year to date cooling degree days 41 45  
Since 1 June cooling degree days 32 37  
Growing Degree Days 16 (Base 50)    
Moisture  
Dew Point 51 °F    
Average Humidity 61    
Maximum Humidity 84    
Minimum Humidity 40    
Precipitation  
Precipitation T in 0.02 in 1.50 in (1997)
Month to date precipitation 1.78 1.20  
Year to date precipitation 24.49 26.60  
Sea Level Pressure  
Sea Level Pressure 29.99 in    
Wind  
Wind Speed 2 mph (NNW)    
Max Wind Speed 7 mph    
Max Gust Speed 14 mph    
Visibility 10 miles    
Events      
T = Trace of Precipitation, MM = Missing Value Source: NWS Daily Summary

Daily Weather History Graph

Daily Weather History Graph

Search for Another Location

Airport or City:

Trip Planner

Search our weather history database for the weather conditions in past years. The results will help you decide how hot, cold, wet, or windy it might be!

Date:

Astronomy

Jun. 30, 2012 Rise Set
Actual Time 5:39 AM PDT 8:46 PM PDT
Civil Twilight 5:05 AM PDT 9:20 PM PDT
Nautical Twilight 4:22 AM PDT 10:03 PM PDT
Astronomical Twilight 3:31 AM PDT 10:54 PM PDT
Moon 5:48 PM PDT (6/30) 2:40 AM PDT (6/30)
Length of Visible Light 16h 14m
Length of Day
15h 06m
Waxing Gibbous, 88% of the Moon is Illuminated
Jun 30
Waxing Gibbous
Jul 3
Full
Jul 10
Last Quarter
Jul 18
New
Jul 26
First Quarter

Hourly Weather History & Observations

Time (PDT) Temp. Dew Point Humidity Pressure Visibility Wind Dir Wind Speed Gust Speed Precip Events Conditions
12:56 AM 57.0 °F 45.0 °F 64% 30.04 in 10.0 mi Calm Calm - N/A   Scattered Clouds
1:56 AM 55.9 °F 45.0 °F 67% 30.03 in 10.0 mi Calm Calm - N/A   Overcast
2:56 AM 55.9 °F 46.0 °F 69% 30.03 in 10.0 mi Calm Calm - N/A   Overcast
4:56 AM 55.9 °F 46.9 °F 72% 30.01 in 10.0 mi Calm Calm - N/A   Overcast
5:56 AM 55.0 °F 46.9 °F 74% 30.02 in 10.0 mi Calm Calm - N/A   Overcast
6:56 AM 55.0 °F 48.0 °F 77% 30.02 in 10.0 mi Calm Calm - N/A   Scattered Clouds
7:56 AM 63.0 °F 51.1 °F 65% 30.01 in 10.0 mi Calm Calm - N/A   Overcast
8:56 AM 64.9 °F 50.0 °F 58% 30.01 in 10.0 mi Calm Calm - N/A   Overcast
9:56 AM 69.1 °F 51.1 °F 53% 30.00 in 10.0 mi Calm Calm - N/A   Overcast
10:56 AM 72.0 °F 48.9 °F 44% 30.00 in 10.0 mi Calm Calm - N/A   Scattered Clouds
11:56 AM 75.0 °F 51.1 °F 43% 30.00 in 10.0 mi Variable 4.6 mph - N/A   Clear
12:56 PM 77.0 °F 52.0 °F 42% 29.99 in 10.0 mi Calm Calm - N/A   Clear
1:56 PM 73.9 °F 50.0 °F 43% 29.99 in 10.0 mi Variable 3.5 mph - N/A   Mostly Cloudy
2:56 PM 72.0 °F 52.0 °F 49% 29.99 in 10.0 mi Variable 4.6 mph - N/A   Overcast
3:56 PM 75.9 °F 51.1 °F 42% 29.96 in 10.0 mi Calm Calm - N/A   Scattered Clouds
4:56 PM 75.0 °F 52.0 °F 44% 29.96 in 10.0 mi Variable 3.5 mph - N/A   Mostly Cloudy
5:56 PM 73.0 °F 51.1 °F 46% 29.95 in 10.0 mi Variable 3.5 mph - N/A   Scattered Clouds
6:56 PM 71.1 °F 51.1 °F 49% 29.96 in 10.0 mi Calm Calm - N/A   Mostly Cloudy
7:56 PM 70.0 °F 52.0 °F 53% 29.94 in 10.0 mi Calm Calm - N/A   Overcast
8:56 PM 64.0 °F 55.9 °F 75% 29.96 in 10.0 mi Variable 4.6 mph - 0.00 in   Overcast
9:56 PM 62.1 °F 57.0 °F 84% 29.97 in 10.0 mi Variable 3.5 mph - N/A   Mostly Cloudy
10:56 PM 62.1 °F 55.9 °F 80% 29.98 in 10.0 mi NNW 4.6 mph - N/A   Mostly Cloudy
11:38 PM 60.8 °F 55.4 °F 82% 30.00 in 10.0 mi Variable 3.5 mph - N/A   Mostly Cloudy
11:56 PM 60.1 °F 55.9 °F 86% 29.97 in 10.0 mi Calm Calm - N/A   Overcast